This is the latest recevied weather packets stored in our database for station/object SQ8AQX-13. If no packets are shown the sender has not sent any weather packets the latest 10 day(s).
| Time | Temp. | Humidity | Pressure | Rain* | Wind** | Luminosity | Snow |
|---|---|---|---|---|---|---|---|
| 1777267308 | 2.22° C | 70% | 1026.1 hPa | - | - | - | - |
| 1777266708 | 1.67° C | 71% | 1026.3 hPa | - | - | - | - |
| 1777266108 | 1.67° C | 72% | 1026.2 hPa | - | - | - | - |
| 1777265508 | 1.11° C | 72% | 1026.3 hPa | - | - | - | - |
| 1777262507 | 0.56° C | 73% | 1026.2 hPa | - | - | - | - |
| 1777261907 | 0° C | 73% | 1026.2 hPa | - | - | - | - |
| 1777261306 | 0° C | 73% | 1026.2 hPa | - | - | - | - |
| 1777260706 | 0° C | 73% | 1026.3 hPa | - | - | - | - |
| 1777258906 | 0.56° C | 72% | 1026.5 hPa | - | - | - | - |
| 1777258306 | 0.56° C | 72% | 1026.4 hPa | - | - | - | - |
| 1777257705 | 0.56° C | 72% | 1026.4 hPa | - | - | - | - |
| 1777255905 | 0° C | 72% | 1026.7 hPa | - | - | - | - |
| 1777252905 | 0.56° C | 70% | 1026.8 hPa | - | - | - | - |
| 1777252304 | 0.56° C | 70% | 1026.7 hPa | - | - | - | - |
| 1777251704 | 0.56° C | 69% | 1026.7 hPa | - | - | - | - |
| 1777251104 | 0.56° C | 69% | 1026.6 hPa | - | - | - | - |
| 1777249303 | 1.11° C | 67% | 1026.7 hPa | - | - | - | - |
| 1777248703 | 1.11° C | 67% | 1026.8 hPa | - | - | - | - |
| 1777248103 | 1.11° C | 67% | 1026.8 hPa | - | - | - | - |
| 1777246303 | 1.67° C | 64% | 1026.7 hPa | - | - | - | - |
| 1777245702 | 1.67° C | 64% | 1026.7 hPa | - | - | - | - |
| 1777245102 | 1.67° C | 64% | 1026.7 hPa | - | - | - | - |
| 1777243302 | 2.22° C | 64% | 1026.4 hPa | - | - | - | - |
| 1777242702 | 2.22° C | 64% | 1026.3 hPa | - | - | - | - |
| 1777242102 | 2.22° C | 62% | 1026.3 hPa | - | - | - | - |
* Rain since midnight (hover to see other rain measurements)
** Current wind speed in m/s (hover to see current wind gust speed)